Location: Pasadena, ca
(34.1243°N, 118.1037°W)
Time: 16:01:17
(UTC-08:00)

Tiangong 1 - Pass Details

Date: 11 November 2017
Orbit: 283 x 308 km, 42.8° (Epoch: 23 November)

Event Time Altitude Azimuth Distance (km) Brightness Sun altitude
Exits shadow 04:41:00 16° 42° (NE) 874 3.2 -21.0°
Drops below altitude 10° 04:42:03 10° 64° (ENE) 1,138 4.2 -20.8°
Sets 04:44:21 0° 84° (E) 1,964 6.1 -20.3°
